CW1550 Weather Reports


time (UTC)temp
C
wind
direction
speed
KPH
gust
KPH
rain 1hr
cm
rain 24hr
cm
rain mn
cm
humidity
%
barometer
mb
20260505040506 14 182 0.0 0.0 0.00 0.00 0.00 66 1008.6
20260505040011 14 182 0.0 0.0 0.00 0.00 0.00 66 1008.5
20260505035504 15 182 0.0 0.0 0.00 0.00 0.00 66 1008.6
20260505034504 15 182 0.0 0.0 0.00 0.00 0.00 65 1008.6
20260505034006 15 182 0.0 0.0 0.00 0.00 0.00 65 1008.6
20260505033505 15 182 0.0 0.0 0.00 0.00 0.00 65 1008.6
20260505031505 15 182 0.0 0.0 0.00 0.00 0.00 63 1008.4
20260505031005 15 182 0.0 0.0 0.00 0.00 0.00 63 1008.4
20260505030506 15 182 0.0 0.0 0.00 0.00 0.00 63 1008.3
20260505030011 16 182 0.0 0.0 0.00 0.00 0.00 63 1008.3
20260505025005 16 196 0.0 0.0 0.00 0.00 0.00 62 1008.5
20260505024505 16 196 3.2 9.7 0.00 0.00 0.00 62 1008.4
20260505024005 16 198 0.0 1.6 0.00 0.00 0.00 62 1008.4
20260505023505 16 198 0.0 0.0 0.00 0.00 0.00 62 1008.4
20260505023011 16 198 0.0 1.6 0.00 0.00 0.00 62 1008.3
20260505021504 16 198 0.0 0.0 0.00 0.00 0.00 62 1008.4
20260505020505 16 198 0.0 0.0 0.00 0.00 0.00 62 1008.4
20260505020011 16 198 0.0 1.6 0.00 0.00 0.00 61 1008.3
20260505015005 16 198 1.6 4.8 0.00 0.00 0.00 61 1008.4
20260505014005 16 185 1.6 3.2 0.00 0.00 0.00 61 1008.2
20260505013505 17 184 0.0 1.6 0.00 0.00 0.00 59 1008.0
20260505013011 17 184 0.0 1.6 0.00 0.00 0.00 59 1008.0
20260505012504 17 183 0.0 1.6 0.00 0.00 0.00 59 1008.1
20260505012005 17 185 1.6 3.2 0.00 0.00 0.00 58 1008.0
20260505011511 17 196 1.6 8.0 0.00 0.00 0.00 57 1008.1
20260505011005 17 194 0.0 3.2 0.00 0.00 0.00 56 1007.9
20260505010505 17 188 0.0 3.2 0.00 0.00 0.00 56 1008.0
20260505010010 17 183 1.6 4.8 0.00 0.00 0.00 56 1008.0
20260505005505 17 184 0.0 3.2 0.00 0.00 0.00 55 1007.9
20260505005005 18 184 0.0 1.6 0.00 0.00 0.00 54 1007.9
20260505004506 18 184 0.0 1.6 0.00 0.00 0.00 54 1007.9
20260505004006 18 184 1.6 3.2 0.00 0.00 0.00 54 1007.7
20260505003506 18 184 0.0 3.2 0.00 0.00 0.00 53 1007.7
20260505003010 19 131 1.6 4.8 0.00 0.00 0.00 51 1007.8
20260505002505 19 120 0.0 4.8 0.00 0.00 0.00 50 1007.9
20260505001505 19 154 1.6 8.0 0.00 0.00 0.00 50 1007.7
20260505000505 20 126 0.0 1.6 0.00 0.00 0.00 48 1007.6
20260504235505 20 120 0.0 1.6 0.00 0.00 0.00 46 1007.5
20260504235005 21 120 0.0 3.2 0.00 0.00 0.00 45 1007.6
20260504234505 21 121 0.0 0.0 0.00 0.00 0.00 44 1007.5
20260504234005 21 121 1.6 4.8 0.00 0.00 0.00 43 1007.5
20260504233504 21 137 3.2 8.0 0.00 0.00 0.00 42 1007.5
20260504233011 21 158 1.6 12.9 0.00 0.00 0.00 42 1007.6
20260504232505 22 158 3.2 12.9 0.00 0.00 0.00 42 1007.5
20260504232005 22 105 4.8 14.5 0.00 0.00 0.00 41 1007.6
20260504231005 22 147 8.0 12.9 0.00 0.00 0.00 40 1007.6
20260504230011 23 130 12.9 22.5 0.00 0.00 0.00 40 1007.6
20260504225506 23 118 1.6 19.3 0.00 0.00 0.00 41 1007.6
20260504225005 23 109 1.6 9.7 0.00 0.00 0.00 40 1007.6
20260504224504 23 131 1.6 19.3 0.00 0.00 0.00 39 1007.5
20260504224005 23 105 4.8 24.1 0.00 0.00 0.00 38 1007.5
20260504223505 24 129 4.8 20.9 0.00 0.00 0.00 37 1007.4
20260504223011 25 125 9.7 19.3 0.00 0.00 0.00 36 1007.4
20260504222505 25 124 9.7 14.5 0.00 0.00 0.00 34 1007.3
20260504221005 25 112 4.8 14.5 0.00 0.00 0.00 32 1007.3
20260504220505 25 156 4.8 20.9 0.00 0.00 0.00 31 1007.3
20260504220010 26 160 8.0 22.5 0.00 0.00 0.00 31 1007.3
20260504215005 26 153 8.0 16.1 0.00 0.00 0.00 30 1007.4
20260504214505 26 146 11.3 20.9 0.00 0.00 0.00 30 1007.4
20260504214005 26 206 4.8 22.5 0.00 0.00 0.00 30 1007.4
20260504213504 26 134 4.8 25.7 0.00 0.00 0.00 32 1007.3
20260504213009 26 116 3.2 14.5 0.00 0.00 0.00 31 1007.4
20260504212505 26 152 12.9 20.9 0.00 0.00 0.00 30 1007.5
20260504212005 26 194 4.8 9.7 0.00 0.00 0.00 30 1007.5
20260504211505 26 185 3.2 14.5 0.00 0.00 0.00 31 1007.4
20260504211005 26 204 9.7 14.5 0.00 0.00 0.00 31 1007.5
20260504210504 26 180 9.7 20.9 0.00 0.00 0.00 31 1007.4
20260504210010 26 254 8.0 19.3 0.00 0.00 0.00 30 1007.3
20260504205505 26 125 9.7 19.3 0.00 0.00 0.00 32 1007.4
20260504204506 26 212 8.0 22.5 0.00 0.00 0.00 31 1007.4
20260504204005 26 133 11.3 20.9 0.00 0.00 0.00 30 1007.5
20260504202504 26 244 8.0 20.9 0.00 0.00 0.00 31 1007.8
20260504201505 26 169 6.4 16.1 0.00 0.00 0.00 31 1007.9
20260504201006 26 144 8.0 16.1 0.00 0.00 0.00 31 1007.9
20260504200011 26 170 6.4 14.5 0.00 0.00 0.00 33 1008.0
20260504195505 25 204 9.7 20.9 0.00 0.00 0.00 32 1008.1
20260504195005 25 243 11.3 22.5 0.00 0.00 0.00 33 1008.1
20260504194504 25 187 12.9 20.9 0.00 0.00 0.00 32 1008.4
20260504193505 25 223 8.0 25.7 0.00 0.00 0.00 33 1008.7
20260504193011 25 161 11.3 22.5 0.00 0.00 0.00 33 1008.7
20260504192505 25 162 9.7 25.7 0.00 0.00 0.00 33 1008.8
20260504192005 25 200 4.8 22.5 0.00 0.00 0.00 33 1008.8
20260504191504 25 218 6.4 19.3 0.00 0.00 0.00 33 1009.0
20260504191005 25 185 17.7 29.0 0.00 0.00 0.00 32 1009.1
20260504190506 25 205 4.8 16.1 0.00 0.00 0.00 34 1009.2
20260504190010 25 265 3.2 11.3 0.00 0.00 0.00 35 1009.2
20260504185505 25 133 9.7 20.9 0.00 0.00 0.00 32 1009.2
20260504185005 25 123 8.0 19.3 0.00 0.00 0.00 32 1009.3
20260504184505 25 215 6.4 16.1 0.00 0.00 0.00 31 1009.4
20260504184005 25 140 11.3 22.5 0.00 0.00 0.00 31 1009.4
20260504183505 25 159 4.8 12.9 0.00 0.00 0.00 31 1009.5
20260504183010 24 135 3.2 11.3 0.00 0.00 0.00 32 1009.5
20260504182505 24 237 6.4 14.5 0.00 0.00 0.00 31 1009.7
20260504181505 24 129 16.1 22.5 0.00 0.00 0.00 31 1009.7
20260504181005 24 126 14.5 24.1 0.00 0.00 0.00 31 1009.7
20260504180504 25 185 6.4 20.9 0.00 0.00 0.00 31 1009.8
20260504180011 24 122 4.8 16.1 0.00 0.00 0.00 32 1009.8
20260504175006 24 276 4.8 12.9 0.00 0.00 0.00 32 1009.9
20260504174505 23 275 4.8 19.3 0.00 0.00 0.00 32 1010.0
20260504173504 23 150 8.0 12.9 0.00 0.00 0.00 33 1010.1
20260504173011 23 187 12.9 24.1 0.00 0.00 0.00 32 1010.1
20260504172505 23 173 11.3 22.5 0.00 0.00 0.00 31 1010.1
20260504172005 23 149 8.0 12.9 0.00 0.00 0.00 31 1010.1
20260504171505 23 140 14.5 22.5 0.00 0.00 0.00 30 1010.3
20260504171005 23 186 4.8 19.3 0.00 0.00 0.00 32 1010.3
20260504170505 23 135 6.4 16.1 0.00 0.00 0.00 33 1010.3
20260504151005 20 195 11.3 22.5 0.00 0.00 0.00 35 1011.9
20260504141005 18 161 8.0 19.3 0.00 0.00 0.00 46 1012.1
20260504140505 17 149 4.8 11.3 0.00 0.00 0.00 46 1012.1
20260504130504 14 219 8.0 14.5 0.00 0.00 0.00 56 1012.5
20260504110505 8 234 0.0 0.0 0.00 0.00 0.00 75 1013.0
20260504082005 7 239 0.0 0.0 0.00 0.00 0.00 73 1013.5
20260504081504 7 239 0.0 0.0 0.00 0.00 0.00 73 1013.5
20260504081004 7 239 0.0 0.0 0.00 0.00 0.00 73 1013.3
20260504050010 7 242 0.0 0.0 0.00 0.00 0.00 68 1013.6
20260504045505 7 242 0.0 1.6 0.00 0.00 0.00 68 1013.7
20260504045005 7 242 0.0 0.0 0.00 0.00 0.00 68 1013.7
20260504044505 7 242 0.0 0.0 0.00 0.00 0.00 68 1013.7
20260504044005 7 242 0.0 0.0 0.00 0.00 0.00 68 1013.7
20260504043506 7 242 0.0 0.0 0.00 0.00 0.00 67 1013.6
20260504043010 7 242 0.0 0.0 0.00 0.00 0.00 67 1013.5
20260504042505 7 242 0.0 3.2 0.00 0.00 0.00 67 1013.5
20260504042005 7 242 0.0 3.2 0.00 0.00 0.00 67 1013.5
20260504041504 7 242 1.6 3.2 0.00 0.00 0.00 67 1013.5
20260504041005 7 242 0.0 1.6 0.00 0.00 0.00 67 1013.4